User: anonymous   Login
Location: Columbia
(38.9520°N, 92.3340°W)
Time: 11:33:04
(UTC-06:00)
Language:

CZ-2C R/B - Orbit

View from above orbital plane
View from above orbital plane
View from above satellite
View from above satellite

Ground track
Ground track

The orbit data is extracted from the following two-line orbital elements,

1 28480U 04046B   18018.21324462  .00000012  00000-0  20526-4 0  9990
2 28480  98.1891 105.5143 0140993 310.3004 100.7655 14.25663241684877
Epoch (UTC): 18 January 2018 05:07:04
Eccentricity: 0.0140993
inclination: 98.1891°
perigee height: 705 km
apogee height: 907 km
right ascension of ascending node: 105.5143°
argument of perigee: 310.3004°
revolutions per day: 14.25663241
mean anomaly at epoch: 100.7655°
orbit number at epoch: 68487

The dashed part of the orbit path shows where the satellite is in the earth's shadow,  

DLR